Weather History for Concord, NH

Change the Weather History Date:

Wednesday, November 20, 2013

  Actual Average Record
Temperature  
Mean Temperature 29 °F 37 °F  
Max Temperature 41 °F 47 °F 76 °F (1991)
Min Temperature 17 °F 27 °F 2 °F (1986)
Degree Days  
Heating Degree Days 36 28  
Month to date heating degree days 517 498  
Since 1 July heating degree days 1232 1257  
Cooling Degree Days 0 0  
Month to date cooling degree days 0 0  
Year to date cooling degree days 537 452  
Moisture  
Dew Point 12 °F    
Average Humidity 52    
Maximum Humidity 77    
Minimum Humidity 27    
Precipitation  
Precipitation 0.00 in 0.12 in 1.23 in (1972)
Month to date precipitation 0.82 2.52  
Year to date precipitation 35.20 36.21  
Snow  
Snow 0.00 in 0.10 in 8.30 in (1961)
Month to date snowfall T 1.0  
Since 1 July snowfall T 1.0  
Since 1 September snowfall T 1.0  
Snow Depth 0.00 in    
Sea Level Pressure  
Sea Level Pressure 30.52 in    
Wind  
Wind Speed 8 mph (NW)    
Max Wind Speed 22 mph    
Max Gust Speed 33 mph    
Visibility 10 miles    
Events      
T = Trace of Precipitation, MM = Missing Value Source: NWS Daily Summary

Daily Weather History Graph

Daily Weather History Graph

Search for Another Location

Airport:

Trip Planner

Search our weather history database for the weather conditions in past years. The results will help you decide how hot, cold, wet, or windy it might be!

Date:

Astronomy

Nov. 20, 2013 Rise Set
Actual Time 6:45 AM EST 4:17 PM EST
Civil Twilight 6:14 AM EST 4:48 PM EST
Nautical Twilight 5:39 AM EST 5:23 PM EST
Astronomical Twilight 5:05 AM EST 5:57 PM EST
Moon 6:57 PM EST (11/20) 9:08 AM EST (11/20)
Length of Visible Light 10h 34m
Length of Day
9h 32m
Waning Gibbous, 91% of the Moon is Illuminated
Nov 20
Waning Gibbous
Nov 25
Last Quarter
Dec 2
New
Dec 9
First Quarter
Dec 17
Full

Hourly Weather History & Observations

Time (EST) Temp. Windchill Dew Point Humidity Pressure Visibility Wind Dir Wind Speed Gust Speed Precip Events Conditions
12:51 AM 30.0 °F 19.1 °F 14.0 °F 51% 30.33 in 10.0 mi NW 15.0 mph - N/A   Overcast
1:51 AM 28.9 °F 18.2 °F 14.0 °F 54% 30.36 in 10.0 mi NW 13.8 mph - N/A   Partly Cloudy
2:51 AM 28.0 °F 16.5 °F 14.0 °F 56% 30.37 in 10.0 mi NW 15.0 mph 27.6 mph N/A   Clear
3:51 AM 28.0 °F 19.3 °F 12.0 °F 51% 30.41 in 10.0 mi NNW 9.2 mph 16.1 mph N/A   Clear
4:51 AM 28.0 °F 16.1 °F 12.0 °F 51% 30.42 in 10.0 mi NNW 16.1 mph 25.3 mph N/A   Clear
5:51 AM 27.0 °F 16.1 °F 12.0 °F 53% 30.46 in 10.0 mi NW 12.7 mph - N/A   Clear
6:51 AM 27.0 °F 14.7 °F 12.0 °F 53% 30.48 in 10.0 mi NW 16.1 mph 20.7 mph N/A   Clear
7:51 AM 28.0 °F 17.5 °F 12.9 °F 53% 30.51 in 10.0 mi NW 12.7 mph 23.0 mph N/A   Clear
8:51 AM 30.9 °F 22.2 °F 12.9 °F 47% 30.53 in 10.0 mi NNW 10.4 mph - N/A   Clear
9:51 AM 33.1 °F 24.9 °F 12.9 °F 43% 30.56 in 10.0 mi NW 10.4 mph - N/A   Clear
10:51 AM 35.1 °F 26.4 °F 12.0 °F 39% 30.56 in 10.0 mi NW 12.7 mph - N/A   Clear
11:51 AM 37.9 °F 31.5 °F 12.0 °F 35% 30.55 in 10.0 mi WNW 9.2 mph 17.3 mph N/A   Clear
12:51 PM 39.0 °F 30.6 °F 10.9 °F 32% 30.54 in 10.0 mi NW 15.0 mph 20.7 mph N/A   Clear
1:51 PM 39.9 °F 33.9 °F 9.0 °F 28% 30.53 in 10.0 mi NW 9.2 mph - N/A   Clear
2:51 PM 39.0 °F 32.8 °F 9.0 °F 29% 30.55 in 10.0 mi WNW 9.2 mph - N/A   Clear
3:51 PM 36.0 °F 31.1 °F 9.0 °F 33% 30.56 in 10.0 mi WNW 5.8 mph - N/A   Clear
4:51 PM 30.9 °F 26.2 °F 10.0 °F 42% 30.57 in 10.0 mi NW 4.6 mph - N/A   Clear
5:51 PM 30.9 °F - 10.0 °F 42% 30.59 in 10.0 mi Calm Calm - N/A   Clear
6:51 PM 26.1 °F - 10.9 °F 53% 30.60 in 10.0 mi Calm Calm - N/A   Clear
7:51 PM 21.9 °F 17.2 °F 14.0 °F 72% 30.63 in 10.0 mi SSE 3.5 mph - N/A   Clear
8:51 PM 21.9 °F - 12.0 °F 66% 30.63 in 10.0 mi Calm Calm - N/A   Clear
9:51 PM 19.0 °F - 14.0 °F 81% 30.63 in 10.0 mi Calm Calm - N/A   Clear
10:51 PM 19.9 °F - 14.0 °F 78% 30.64 in 10.0 mi Calm Calm - N/A   Clear
11:51 PM 18.0 °F - 15.1 °F 88% 30.64 in 10.0 mi Calm Calm - N/A   Clear